TimeEST,TemperatureF,Dew PointF,Humidity,Sea Level PressureIn,VisibilityMPH,Wind Direction,Wind SpeedMPH,Gust SpeedMPH,PrecipitationIn,Events,Conditions,WindDirDegrees,DateUTC
12:51 AM,46.0,42.1,86,30.12,5.0,ENE,8.1,-,N/A,,Overcast,60,2013-12-05 05:51:00
1:51 AM,46.0,43.0,89,30.12,4.0,NE,6.9,-,N/A,,Overcast,40,2013-12-05 06:51:00
2:51 AM,46.9,43.0,86,30.12,4.0,NE,8.1,-,0.00,,Overcast,50,2013-12-05 07:51:00
3:04 AM,46.4,42.8,87,30.12,2.0,NE,8.1,-,0.00,Rain,Light Rain,40,2013-12-05 08:04:00
3:41 AM,46.4,44.6,93,30.12,2.0,NE,5.8,-,0.00,Rain,Light Rain,50,2013-12-05 08:41:00
3:51 AM,46.0,44.1,93,30.12,2.0,ENE,4.6,-,0.00,Rain,Light Rain,60,2013-12-05 08:51:00
4:51 AM,46.0,44.1,93,30.10,1.8,ENE,8.1,-,0.01,Rain,Light Rain,70,2013-12-05 09:51:00
5:11 AM,46.4,44.6,93,30.10,2.0,East,5.8,-,0.00,,Overcast,80,2013-12-05 10:11:00
5:51 AM,46.0,44.1,93,30.10,2.0,NE,3.5,-,0.00,,Overcast,40,2013-12-05 10:51:00
6:19 AM,46.4,44.6,93,30.08,1.0,NE,8.1,-,N/A,,Overcast,50,2013-12-05 11:19:00
6:51 AM,46.0,44.1,93,30.08,0.8,NE,9.2,-,N/A,,Overcast,50,2013-12-05 11:51:00
7:51 AM,46.9,45.0,93,30.09,0.2,NE,3.5,-,N/A,,Overcast,40,2013-12-05 12:51:00
8:39 AM,46.4,46.4,100,30.08,0.1,ENE,8.1,-,N/A,Fog,Fog,60,2013-12-05 13:39:00
8:51 AM,46.9,46.0,97,30.09,0.0,NE,8.1,-,N/A,Fog,Fog,50,2013-12-05 13:51:00
9:08 AM,48.2,46.4,93,30.09,0.0,ENE,5.8,-,N/A,Fog,Fog,60,2013-12-05 14:08:00
9:44 AM,46.4,46.4,100,30.09,0.0,NE,3.5,-,N/A,Fog,Fog,50,2013-12-05 14:44:00
9:51 AM,46.9,46.0,97,30.09,0.0,Calm,Calm,-,N/A,Fog,Fog,0,2013-12-05 14:51:00
10:07 AM,46.4,46.4,100,30.08,0.0,ENE,4.6,-,N/A,Fog,Fog,60,2013-12-05 15:07:00
10:51 AM,48.9,48.0,97,30.08,0.0,ENE,4.6,-,N/A,Fog,Fog,60,2013-12-05 15:51:00
11:00 AM,48.2,46.4,93,30.08,0.0,ENE,4.6,-,N/A,Fog,Fog,60,2013-12-05 16:00:00
11:25 AM,50.0,48.2,94,30.06,0.0,Calm,Calm,-,N/A,Fog,Fog,0,2013-12-05 16:25:00
11:48 AM,50.0,48.2,94,30.05,2.5,ESE,3.5,-,N/A,,Overcast,110,2013-12-05 16:48:00
11:51 AM,51.1,48.9,92,30.04,2.5,ESE,3.5,-,N/A,,Overcast,110,2013-12-05 16:51:00
12:29 PM,53.6,51.8,94,30.01,5.0,South,5.8,-,N/A,,Overcast,170,2013-12-05 17:29:00
12:51 PM,54.0,52.0,93,30.01,7.0,South,6.9,-,N/A,,Overcast,180,2013-12-05 17:51:00
1:51 PM,55.9,51.1,84,30.00,10.0,South,6.9,-,N/A,,Overcast,180,2013-12-05 18:51:00
2:47 PM,55.4,51.8,88,29.99,10.0,South,9.2,-,N/A,,Overcast,170,2013-12-05 19:47:00
2:51 PM,55.9,52.0,87,29.99,10.0,South,10.4,-,N/A,,Overcast,180,2013-12-05 19:51:00
3:51 PM,55.0,51.1,86,29.99,8.0,South,6.9,-,N/A,,Overcast,170,2013-12-05 20:51:00
4:37 PM,53.6,51.8,94,29.99,9.0,South,6.9,-,N/A,,Overcast,180,2013-12-05 21:37:00
4:51 PM,55.0,51.1,86,29.99,9.0,South,5.8,-,N/A,,Overcast,180,2013-12-05 21:51:00
5:04 PM,55.4,51.8,88,29.99,9.0,Variable,3.5,-,N/A,,Overcast,0,2013-12-05 22:04:00
5:36 PM,55.4,51.8,88,30.01,9.0,Calm,Calm,-,N/A,,Overcast,0,2013-12-05 22:36:00
5:51 PM,55.0,51.1,86,30.01,8.0,South,5.8,-,N/A,,Overcast,180,2013-12-05 22:51:00
6:51 PM,57.9,53.1,84,30.00,7.0,SSW,8.1,-,N/A,,Overcast,210,2013-12-05 23:51:00
7:22 PM,57.2,53.6,88,29.98,6.0,South,5.8,-,N/A,,Haze,180,2013-12-06 00:22:00
7:51 PM,55.9,52.0,87,29.99,8.0,SSE,5.8,-,N/A,,Overcast,160,2013-12-06 00:51:00
8:51 PM,55.0,51.1,86,29.99,5.0,South,6.9,-,N/A,,Overcast,170,2013-12-06 01:51:00
8:59 PM,55.4,51.8,88,29.99,2.5,South,8.1,-,N/A,,Overcast,180,2013-12-06 01:59:00
9:11 PM,53.6,51.8,94,29.98,1.5,South,6.9,-,N/A,,Overcast,170,2013-12-06 02:11:00
9:51 PM,54.0,52.0,93,29.97,1.5,South,5.8,-,0.00,,Overcast,170,2013-12-06 02:51:00
10:03 PM,53.6,51.8,94,29.96,1.5,SSE,6.9,-,N/A,,Overcast,160,2013-12-06 03:03:00
10:51 PM,53.1,51.1,93,29.95,1.5,South,6.9,-,N/A,,Overcast,180,2013-12-06 03:51:00
11:51 PM,53.1,52.0,96,29.94,1.5,South,5.8,-,N/A,,Overcast,190,2013-12-06 04:51:00